Regional Weather Roundup
Issued by NWS

Home | Current Version | Previous Version | Graphics & Text | Print | Product List | Glossary On
Versions: 1 2 3 4 5 6 7 8 9 10 11 12 13 14 15 16 17 18 19 20 21 22 23 24 25 26 27 28 29 30 31 32 33 34 35 36 37 38 39 40 41 42 43 44 45 46 47 48 49 50
717
ASUS45 KTFX 252310
RWRMT
MONTANA REGIONAL WEATHER ROUNDUP
NATIONAL WEATHER SERVICE GREAT FALLS MT
500 PM MDT TUE APR 25 2017

NOTE: "FAIR" INDICATES FEW OR NO CLOUDS BELOW 12000 FEET WITH NO
SIGNIFICANT WEATHER AND/OR OBSTRUCTIONS TO VISIBILITY.

MTZ001>007-043-260000-
WEST OF THE DIVIDE

CITY           SKY/WX    TMP DP  RH WIND       PRES   REMARKS
KALISPELL      LGT RAIN  44  38  79 NW3       29.82R
MISSOULA       PTSUNNY   50  35  56 N9        29.82F
BUTTE          CLOUDY    48  23  37 W12G21    29.81S
MULLAN PASS    FOG       34  34 100 MISG      29.83S VSB 1/4
ANACONDA         N/A     46  28  49 W17       29.81F
DEER LODGE       N/A     52  25  35 W10       29.82F
EUREKA           N/A     46  34  61 SE9       29.79R
HAMILTON         N/A     54  28  37 CALM      29.81F
PLAINS           N/A     53  38  56 W8        29.85S
$$

MTZ008-052>055-260000-
SOUTHWEST MONTANA

CITY           SKY/WX    TMP DP  RH WIND       PRES   REMARKS
BOZEMAN        MOSUNNY   51  36  56 VRB3      29.77F
DILLON         CLOUDY    51  29  42 N10       29.79R
W YELLOWSTONE  CLOUDY    39  30  70 CALM      29.81S
THREE FORKS      N/A     53   3  13 N5        29.80S
TWIN BRIDGES     N/A     54  24  31 W10       29.80F VSB 0
$$

MTZ009-010-012-014-046-048-049-054-260000-
EAST SLOPES AND CENTRAL MONTANA

CITY           SKY/WX    TMP DP  RH WIND       PRES   REMARKS
CUT BANK       CLOUDY    38  36  92 N9        29.83R WCI  31
GREAT FALLS    MOSUNNY   48  38  68 NE12      29.78S
MALMSTROM AFB  SUNNY     46  40  77 E10       29.78F
HELENA         CLOUDY    58  24  27 SW16G26   29.76S
AUGUSTA        LGT RAIN  38  36  93 N29       29.77R WCI  26
BOWMANS CRNR   PTSUNNY   48  37  66 NE5       29.73F
CHOTEAU          N/A     39  39 100 N18       29.82R WCI  30
FAIRFIELD      FLURRIES  38  35  88 N22G29    29.79R WCI  28
POWER          PTSUNNY   45  38  77 E6        29.77R
RAYNESFORD     PTSUNNY   41  38  87 NE14      29.79F
ULM            PTSUNNY   49  40  71 E10       29.76F
$$

MTZ011-013-016-021-045-047-050-051-260000-
NORTH CENTRAL MONTANA

CITY           SKY/WX    TMP DP  RH WIND       PRES   REMARKS
HAVRE          CLOUDY    48  33  56 NE18G24   29.82R
LEWISTOWN      CLOUDY    43  33  68 E13       29.80S
N BAR RANCH    CLOUDY    34  32  93 S9        29.86S WCI  26
CHINOOK          N/A     45  28  53 E16G22    29.85S
DENTON         LGT RAIN  44  37  76 E12G31    29.77S
FORT BENTON      N/A     48  37  66 MISG      29.82R
GEYSER         RAIN      37  36  96 NW8       29.81R WCI  31
GRASS RANGE    PTSUNNY   40  34  81 E9        29.80F
JUDITH GAP     CLOUDY    37  33  84 S12       29.81F WCI  30
STANFORD       LGT RAIN  42  38  86 S8        29.80S
WINIFRED         N/A     45  32  61 E17       29.80S
$$

MTZ017>020-022>027-061-062-260000-
NORTHEAST MONTANA

CITY           SKY/WX    TMP DP  RH WIND       PRES   REMARKS
GLASGOW        CLOUDY    42  24  49 SE10      29.92F
JORDAN           N/A     40  26  57 E8        29.91S
SIDNEY         PTSUNNY   40  24  53 NE13G22   29.96R
WOLF POINT     CLOUDY    46  24  42 E8G18     29.94S
MALTA          CLOUDY    41  27  56 SE9       29.92
PLENTYWOOD       N/A     39  23  52 E8        29.96S
POPLAR           N/A     41  21  45 E8        29.95S
SCOBEY           N/A     39  22  51 NE5       29.94S
$$

MTZ028>42-056>058-260000-
SOUTHCENTRAL AND SOUTHEAST MONTANA

CITY           SKY/WX    TMP DP  RH WIND       PRES   REMARKS
BAKER          CLOUDY    33  24  69 NE9       29.90S WCI  25
BILLINGS       CLOUDY    38  29  70 N3        29.87S
LIVINGSTON     MOSUNNY   49  35  58 VRB3      29.79S
MILES CITY     CLOUDY    37  25  61 E7        29.91S WCI  32
BIG TIMBER     MOSUNNY   46  37  71 SE10      29.83S
EKALAKA          N/A     28  24  85 N5        29.86S
LAUREL           N/A     39  26  60 NE6       29.86F
ROUNDUP          N/A     40  28  62 SW3       29.79F
$$

REGIONAL REPORTS...DAKOTAS

CITY           SKY/WX    TMP DP  RH WIND       PRES   REMARKS
WILLISTON      CLOUDY    41  24  51 NE12      29.97R
MINOT          CLOUDY    43  25  49 N15       29.92R
DICKINSON      CLOUDY    31  23  72 NE14      29.89S WCI  21
BEACH          PTSUNNY   36  25  64 NE10      29.94R WCI  28
TIOGA          CLOUDY    36  28  75 NE17      29.96S WCI  25
WATFORD CITY   CLOUDY    37  25  60 NE14      29.95R WCI  29
BISMARCK       CLOUDY    36  26  67 N15G25    29.90F WCI  27
GRAND FORKS    CLOUDY    38  29  70 N21G30    29.86R WCI  28
FARGO          CLOUDY    38  31  76 N23       29.78R WCI  27
BUFFALO SD       N/A     29  26  89 NE16      29.81R WCI  17
RAPID CITY     CLOUDY    28  25  88 N18       29.82S WCI  15
$$

REGIONAL REPORTS...WYOMING/IDAHO/WASHINGTON

CITY           SKY/WX    TMP DP  RH WIND       PRES   REMARKS
GILLETTE       SNOW      28  28 100 N13       29.83R WCI  17
SHERIDAN       CLOUDY    36  30  79 NW7       29.85F WCI  30
CODY           MOSUNNY   41  31  67 N8        29.81S
YELLOWSTONE LA   N/A     32  30  92 W5        29.83R
IDAHO FALLS    LGT RAIN  49  38  65 S9        29.82R
SALMON         PTSUNNY   52  32  46 NE7       29.79F
BOISE          CLOUDY    57  32  38 VRB7      29.90F
SPOKANE        MOSUNNY   55  40  56 SW20      29.82F
$$

REGIONAL REPORTS...ALBERTA

CITY           SKY/WX    TMP DP  RH WIND       PRES   REMARKS
EDMONTON       CLOUDY    36  32  87 S5        29.94S
CALGARY        CLOUDY    34  27  75 NE8       29.86S WCI  27
LETHBRIDGE     CLOUDY    37  32  81 NW9       29.86R WCI  31
MEDICINE HAT   LGT RAIN  39  36  87 CALM      29.86S
WATERTON GATE    N/A     34  32  93 N6          N/A  WCI  29
CARDSTON         N/A     37  34  87 N7          N/A
MILK RIVER       N/A     39  34  81 NW12        N/A  WCI  32
ONEFOUR          N/A     37  34  87 E12         N/A  WCI  30
$$

REGIONAL REPORTS...SASKATCHEWAN

CITY           SKY/WX    TMP DP  RH WIND       PRES   REMARKS
SWIFT CURRENT  CLOUDY    34  25  69 SE13G20   29.93F WCI  25
REGINA         PTSUNNY   37  23  56 NE8       30.02F WCI  31
SASKATOON      CLOUDY    37  19  48 E10G17    30.06F WCI  30
VAL MARIE        N/A     37  25  60 SE13        N/A  WCI  29
ROCKGLEN         N/A     34  25  69 E3          N/A
ASSINIBOIA       N/A     37  30  75 SE10        N/A  WCI  30
$$




USA.gov is the U.S. government's official web portal to all federal, state and local government web resources and services.